GFSGBSN_700_rhum_195.txt.gz
RH
13 13 13 13 14 13 13 14 17 25 45 52 56 55 56 56 51 50 50 50 50 40 41 41 41 37 33 31 32 30 28 28 24 19 18 18 18 22 22 24 28 30 30 30 30 28 27
14 14 14 15 14 14 13 13 14 16 34 53 56 58 59 61 57 54 52 52 45 35 37 43 42 40 38 36 32 31 31 29 22 19 19 20 22 26 30 30 33 34 35 33 32 30 29
14 13 14 16 15 14 13 13 14 15 21 47 59 64 62 64 61 57 52 47 47 41 31 37 42 41 37 36 31 28 29 22 20 20 22 25 28 36 34 28 32 34 32 32 30 29 28
18 15 14 14 15 15 14 13 13 14 16 32 60 68 68 66 64 63 58 52 44 43 35 36 40 40 36 38 34 33 32 27 27 23 24 23 23 28 33 34 36 33 34 36 26 28 27
25 18 13 12 14 15 15 14 14 14 16 21 58 70 67 66 68 68 60 50 43 39 34 34 42 41 38 38 38 39 41 40 38 34 26 23 26 30 32 38 40 40 38 32 30 23 23
57 57 51 37 22 13 14 15 14 15 16 19 54 73 70 70 76 72 66 52 44 35 29 35 45 45 38 38 37 40 43 40 38 41 32 31 32 31 30 39 47 40 37 37 37 26 31
66 65 63 61 48 38 16 13 14 16 16 18 39 74 74 75 79 81 64 51 46 37 36 45 44 40 34 31 33 36 42 42 41 37 32 35 39 29 27 33 40 42 38 39 33 26 25
70 74 74 72 75 68 37 16 13 15 16 19 25 68 81 81 85 78 67 72 67 68 46 48 40 40 35 30 28 28 31 35 34 30 30 37 38 22 27 32 34 37 36 30 25 23 22
75 73 73 76 75 81 65 35 16 15 16 19 22 52 78 81 81 73 81 72 71 78 80 46 47 41 35 30 26 24 26 25 22 21 21 25 20 25 24 26 31 31 30 24 26 26 26
79 79 75 79 81 85 84 74 35 16 17 20 24 27 50 70 76 68 71 66 88 83 87 58 53 43 37 33 29 29 26 25 25 24 24 29 24 22 26 28 29 29 26 28 30 30 30
83 83 78 80 85 88 85 74 56 21 21 23 25 34 61 80 76 62 66 94 99 92 90 66 56 45 43 40 37 33 29 28 29 30 32 29 28 28 31 30 32 33 36 35 34 34 34
90 88 85 79 75 92 92 87 66 28 23 26 33 46 57 54 44 65 96 99 100 98 90 65 61 58 56 52 42 35 32 33 34 35 36 35 36 36 33 32 36 37 31 29 30 34 38
87 96 93 89 83 90 89 88 76 44 30 29 36 35 35 38 55 82 99 99 100 98 76 70 63 64 66 60 59 43 40 38 34 35 37 40 42 39 36 34 32 31 33 39 44 45 36
93 99 99 98 97 94 90 72 44 48 41 28 29 37 64 89 98 99 99 100 99 92 84 78 80 79 86 83 76 67 52 62 67 69 68 54 48 41 45 42 44 43 43 41 88 69 45
96 97 100 99 100 98 95 75 59 52 50 60 64 96 99 97 100 99 99 100 96 91 90 86 86 86 88 85 83 82 88 91 87 86 97 95 77 57 49 59 61 56 59 59 59 72 61
99 100 100 98 99 98 97 84 81 73 86 94 99 99 100 100 100 99 99 99 97 93 92 94 99 93 98 96 92 92 96 98 90 82 92 97 90 68 66 62 55 58 66 68 62 90 78
99 100 100 98 98 100 100 95 92 98 100 100 100 100 99 100 100 100 99 99 96 93 96 98 96 96 99 100 94 93 96 96 96 96 96 96 94 74 68 63 69 72 66 65 61 63 75
100 100 98 100 98 100 100 100 100 100 100 100 100 100 99 100 99 98 98 93 94 98 97 96 96 100 98 98 97 95 93 95 96 96 96 97 94 86 74 74 48 51 86 98 97 86 94
99 95 98 99 99 99 100 100 100 100 100 100 100 100 99 98 98 97 97 97 97 98 100 96 96 97 96 99 96 96 96 96 96 98 88 84 80 81 52 37 65 76 69 78 77 91 84
100 100 100 100 100 100 100 100 100 100 100 100 100 99 98 97 97 97 97 97 97 95 94 97 97 96 95 92 92 94 86 83 82 69 58 53 71 88 82 64 57 66 59 72 75 77 75
100 100 100 98 100 100 100 100 100 100 100 100 99 98 97 96 93 94 97 97 97 96 96 95 92 82 83 85 86 84 72 64 58 44 46 62 81 75 76 84 78 64 59 42 75 78 78
100 100 100 100 98 100 99 100 100 100 99 99 99 98 97 97 97 97 97 96 97 96 95 95 94 88 94 100 74 63 72 71 55 34 39 45 83 87 77 38 93 90 67 47 43 50 81
98 100 100 100 99 99 100 98 99 100 98 98 97 98 98 96 96 96 94 88 80 85 93 85 79 78 62 64 78 67 46 33 26 22 15 40 72 93 91 70 88 89 35 57 68 70 72
99 98 99 99 99 99 100 98 98 98 98 98 97 96 84 63 48 39 35 36 40 48 49 45 45 69 63 38 29 26 19 14 12 12 26 50 89 99 94 94 87 42 51 93 97 94 77
99 97 96 96 96 96 98 98 98 96 92 76 56 43 32 26 24 23 22 24 27 28 30 36 31 27 25 21 18 20 20 22 22 42 61 69 80 92 95 84 73 75 99 98 98 84 97
93 94 94 96 97 97 96 87 67 53 43 32 25 23 22 22 22 22 22 23 24 23 21 22 21 19 17 23 34 50 63 58 78 33 52 73 93 75 86 92 78 96 71 76 89 98 97
97 99 93 89 64 50 43 37 32 29 27 26 25 24 23 24 24 24 23 21 21 21 20 20 18 20 25 35 54 77 85 65 67 68 66 79 54 79 82 85 55 55 82 83 94 95 95
48 38 33 31 30 28 25 21 19 19 20 21 22 23 24 24 22 21 20 20 20 20 20 23 21 16 34 62 70 74 89 84 76 73 64 66 78 80 80 66 77 60 67 96 96 90 98
13 14 17 21 25 28 30 28 24 23 24 24 25 24 23 22 21 20 22 21 18 21 22 19 19 24 54 74 77 83 79 81 80 86 47 86 70 94 90 50 31 76 96 96 96 97 96

GFSGBSN_700_rhum_198.txt.gz
RH
13 14 13 13 14 14 14 12 12 12 12 14 25 48 54 54 54 54 53 51 42 30 29 31 28 26 34 35 34 33 31 32 29 29 27 20 19 19 19 20 24 25 27 28 32 26 26
14 14 14 13 14 13 13 14 13 12 12 12 14 26 51 57 56 58 56 53 50 40 34 28 30 30 33 35 34 32 29 30 31 31 22 18 18 19 20 22 30 36 27 28 30 26 26
14 14 15 15 15 14 13 15 14 13 12 12 14 15 38 58 60 62 59 53 53 48 36 30 26 27 29 35 34 34 30 30 26 22 20 20 20 20 19 25 28 22 26 34 34 31 33
18 22 20 19 16 15 14 15 15 15 13 13 13 14 22 53 62 64 62 57 55 49 35 30 28 26 29 36 35 35 36 35 32 27 27 25 24 24 20 28 22 26 35 32 26 34 29
36 33 37 32 24 21 18 18 15 14 14 14 13 13 16 45 60 68 68 62 57 56 38 32 31 32 34 38 37 38 37 37 40 42 44 39 36 29 34 31 36 35 34 26 28 31 31
44 45 54 58 58 54 45 47 31 19 14 13 14 14 16 34 52 71 72 66 59 54 32 36 41 39 37 38 34 38 41 44 46 45 46 44 44 45 42 37 33 26 28 31 30 31 31
56 58 63 64 63 66 66 68 62 46 22 15 13 14 17 27 44 70 69 55 52 38 32 53 47 42 38 37 33 32 32 32 39 45 51 53 52 45 40 38 40 36 38 37 33 31 35
65 68 70 73 68 65 64 68 71 65 42 21 14 15 17 21 30 51 68 65 62 51 34 48 48 43 37 33 29 26 27 26 28 31 42 48 49 43 42 42 43 43 41 37 36 34 33
74 76 78 78 71 69 65 71 78 85 75 55 24 17 20 23 23 30 49 72 55 50 62 50 50 46 36 34 36 30 28 26 23 24 33 40 34 34 29 38 43 45 43 37 37 32 32
81 81 82 81 79 76 70 71 72 78 87 71 43 20 23 26 27 31 59 56 48 91 77 60 55 46 42 44 35 42 39 34 32 30 29 37 32 27 32 41 40 37 35 37 37 33 28
85 84 84 84 82 81 79 76 78 82 93 81 61 24 24 27 35 48 57 46 84 94 86 63 54 47 46 49 49 45 43 38 36 40 39 34 36 35 36 35 38 34 37 38 38 38 36
78 90 85 88 88 88 85 84 88 86 90 91 68 29 28 33 38 41 42 87 90 96 88 68 58 56 57 57 63 61 54 52 43 38 41 42 42 38 39 41 41 40 38 39 38 38 37
92 86 93 95 88 96 94 96 93 93 93 85 63 46 35 35 36 43 84 98 100 98 79 74 67 66 69 78 76 69 62 55 53 49 42 41 46 47 46 43 42 42 57 80 69 62 55
98 100 95 96 97 99 94 98 98 99 96 80 42 42 34 34 60 92 100 100 100 98 87 80 82 82 82 81 76 71 67 61 77 66 68 60 59 52 50 47 56 76 92 92 88 52 38
85 90 98 97 98 98 100 100 100 99 99 87 67 62 64 75 83 99 100 100 96 89 92 88 85 86 88 84 78 83 90 87 94 84 93 98 76 74 74 59 66 91 96 95 98 96 87
94 97 99 98 98 100 100 100 99 100 99 96 89 82 92 98 100 100 99 99 99 99 97 95 98 96 92 96 94 96 96 96 100 84 81 94 90 80 84 70 68 72 79 80 95 89 82
94 87 100 96 87 91 99 100 99 100 100 100 100 100 99 100 100 100 99 99 99 99 100 100 96 96 100 100 99 98 96 97 100 96 93 93 92 75 79 62 59 62 62 62 63 62 72
97 88 100 92 98 100 100 100 100 100 100 100 100 100 99 100 100 99 98 98 98 98 98 98 98 97 99 100 98 100 98 98 91 95 95 90 80 79 67 60 53 60 67 92 93 70 68
98 89 98 98 100 100 100 100 100 100 100 100 100 100 99 100 99 99 98 98 98 98 98 96 95 96 99 100 97 98 99 96 96 96 96 89 65 58 40 36 65 58 46 41 40 41 50
100 96 98 100 98 100 98 100 100 100 100 100 100 100 99 98 99 98 98 97 98 96 95 96 96 96 97 97 97 96 94 96 93 85 74 47 70 68 55 45 45 44 42 44 47 54 60
100 99 100 100 100 100 100 100 100 100 100 100 100 99 98 98 95 98 98 97 96 96 96 96 98 98 96 95 95 98 96 94 55 50 40 76 76 62 58 54 51 50 51 49 51 51 56
100 100 99 100 98 99 100 99 100 100 100 100 99 99 99 98 98 98 98 96 96 96 96 96 94 96 92 88 80 85 78 73 90 78 81 83 76 68 72 66 63 59 56 58 65 65 81
100 100 100 100 100 100 100 100 99 100 99 98 98 98 98 98 97 98 96 97 97 96 95 92 91 88 97 92 66 53 54 39 26 26 60 71 78 78 64 59 58 59 54 56 66 92 98
99 100 100 100 100 99 99 99 98 97 97 97 98 98 97 96 97 96 96 96 88 69 70 61 56 50 42 45 41 26 20 15 11 9 44 72 67 72 82 54 62 43 54 78 94 96 87
99 100 99 99 98 95 96 97 97 97 98 98 98 100 97 92 60 38 31 29 33 32 31 33 32 35 28 23 23 20 36 46 45 41 56 62 82 81 65 41 41 40 82 93 91 63 97
99 98 97 96 98 98 96 97 98 97 97 96 78 48 33 26 26 22 22 21 22 24 26 27 23 22 21 18 19 62 32 31 32 53 59 69 80 98 70 67 58 42 66 55 63 92 94
97 98 98 96 95 98 100 96 85 63 39 31 28 26 24 24 23 22 23 22 22 22 25 20 21 21 22 29 82 63 52 64 58 43 33 57 74 66 56 59 56 50 81 54 95 90 90
95 97 99 91 76 47 34 30 28 26 26 25 23 22 20 21 21 20 20 19 19 20 23 22 23 27 20 82 84 67 73 58 72 51 48 48 44 41 44 69 60 90 33 86 95 83 96
24 13 11 10 11 12 12 12 14 15 17 19 24 24 24 25 24 21 20 20 20 21 21 20 22 22 60 97 87 94 78 69 65 58 50 56 63 78 95 67 61 40 67 95 96 95 98

GFSGBSN_700_rhum_201.txt.gz
RH
14 14 14 14 14 13 13 13 12 12 12 11 11 12 12 17 28 38 52 51 48 45 40 37 34 30 24 24 31 33 35 33 30 31 30 31 34 34 31 28 27 27 27 28 26 26 27
15 15 15 14 14 14 14 14 13 13 13 12 12 12 12 12 16 21 42 54 52 47 42 40 36 30 23 25 23 32 34 34 28 29 32 30 31 35 34 32 30 29 29 30 29 28 28
16 15 14 14 15 17 16 15 14 14 14 14 13 12 13 13 14 14 27 52 51 47 43 39 36 28 24 27 28 33 35 34 29 29 27 38 40 38 35 36 35 35 35 31 28 26 26
15 16 15 16 23 24 21 18 17 15 21 19 15 13 12 13 14 14 18 33 41 39 39 34 31 26 31 28 31 37 39 34 35 34 26 24 31 27 31 39 38 35 32 29 25 23 26
15 16 16 26 31 36 37 44 46 45 44 41 34 17 14 14 14 13 14 21 31 28 31 33 29 36 50 41 39 37 37 39 38 38 34 35 38 41 43 41 37 31 27 26 26 26 25
16 16 24 37 39 52 56 58 58 59 61 59 56 42 20 15 14 13 14 17 20 26 28 31 32 42 56 50 37 45 43 42 43 47 45 47 52 50 45 41 33 28 26 25 24 23 25
17 18 39 49 52 59 62 63 61 59 61 64 68 55 28 18 16 15 15 16 35 39 40 31 33 44 46 48 41 31 28 27 27 29 49 51 48 42 39 38 36 34 32 30 29 27 28
20 24 46 54 62 65 69 65 64 62 60 66 70 70 68 43 25 18 18 21 30 51 29 30 40 47 38 33 28 33 31 32 32 37 41 46 45 42 41 39 37 34 33 31 29 28 27
25 38 54 64 67 71 71 70 69 69 67 70 72 74 73 60 33 24 23 26 54 47 33 40 54 44 38 36 39 35 40 42 40 37 33 33 32 34 34 33 30 29 29 32 32 30 28
43 58 68 75 76 74 75 75 75 76 78 82 80 83 80 68 48 35 28 28 47 45 64 71 53 46 38 42 40 44 45 48 44 39 37 36 34 34 33 32 30 30 28 29 29 30 28
68 74 79 82 80 78 80 81 80 78 81 86 89 86 83 75 56 30 32 37 44 83 84 65 56 46 42 48 52 45 50 49 48 43 41 39 36 34 34 33 33 32 34 33 34 34 33
86 86 84 82 79 82 86 86 86 86 86 92 93 93 86 71 49 37 41 40 58 97 87 65 52 49 54 53 60 65 63 54 48 46 44 43 40 38 39 37 38 38 40 38 37 36 36
84 83 85 88 83 83 89 90 94 93 96 98 98 98 93 66 51 48 37 51 100 98 69 61 60 60 62 68 68 66 63 56 51 53 46 46 42 37 44 47 45 44 53 50 58 48 51
90 79 92 99 94 95 96 95 97 99 100 100 100 99 98 75 47 44 48 99 100 98 82 69 77 77 76 71 70 67 64 56 64 73 63 55 50 51 55 55 54 56 73 72 92 49 39
100 91 90 93 98 93 94 97 100 98 98 100 100 98 99 90 75 83 87 100 96 98 97 89 83 83 78 77 74 69 68 69 77 95 77 77 62 69 72 72 68 85 75 76 99 76 73
86 87 97 98 99 95 95 99 99 100 100 100 100 100 98 100 98 94 100 99 99 98 98 100 100 100 88 80 91 92 78 95 95 78 82 98 84 66 67 72 59 63 62 67 97 88 71
92 98 100 100 97 96 99 99 99 100 100 100 100 100 98 100 100 100 99 99 98 98 100 100 99 99 98 96 94 87 88 98 90 89 85 95 99 71 76 70 60 56 70 91 89 72 82
92 93 99 100 97 94 100 94 91 100 100 100 100 100 97 100 100 99 98 98 99 100 99 99 99 99 98 97 97 97 97 100 87 87 99 97 81 70 61 56 52 52 50 78 81 74 79
100 99 95 100 99 98 100 99 96 96 99 100 100 100 99 100 99 98 99 99 100 99 98 98 98 96 92 97 97 96 97 93 91 93 94 81 67 62 43 38 52 45 65 43 38 37 41
98 100 100 98 100 98 100 100 91 96 100 100 100 100 100 99 99 100 100 99 98 98 98 98 97 97 97 98 97 97 95 91 84 82 74 52 63 58 54 44 45 43 37 32 31 36 42
90 98 100 100 99 100 100 100 100 99 100 100 100 99 98 98 99 99 99 98 98 98 98 98 97 95 98 97 98 99 99 95 95 96 57 73 65 63 58 49 42 38 36 38 39 40 42
100 99 99 100 99 99 99 99 98 100 100 100 100 100 100 99 99 99 98 97 97 98 97 95 98 96 97 96 98 92 90 91 82 73 77 74 72 67 64 58 53 46 45 42 44 45 44
83 93 99 98 100 95 100 100 99 100 100 100 99 100 99 98 98 98 94 96 97 96 96 98 98 96 96 98 96 96 94 88 80 76 64 53 58 66 59 48 44 44 41 43 58 59 67
95 90 86 84 99 99 100 99 98 99 100 99 98 98 98 98 98 96 96 97 97 96 96 96 89 100 99 53 46 32 36 48 56 56 59 60 59 59 60 49 63 38 35 51 66 68 67
91 90 98 100 100 96 98 95 98 98 96 96 97 98 98 98 98 98 98 97 96 94 54 69 73 91 54 35 48 58 46 41 43 48 52 51 54 55 57 46 47 36 36 68 77 69 67
99 99 100 100 100 97 88 95 96 96 95 97 97 97 97 96 96 91 51 44 84 90 92 70 88 34 29 69 88 64 36 27 27 26 39 44 60 66 61 74 63 37 33 85 64 48 94
100 100 100 98 90 89 86 85 87 95 98 99 96 87 61 33 38 25 70 84 78 77 81 86 99 40 31 91 82 64 50 44 47 42 37 33 43 88 88 89 71 35 73 68 51 76 78
98 99 97 97 94 90 87 93 93 87 66 42 31 25 23 22 22 20 20 27 65 64 82 85 90 88 94 89 75 58 59 48 66 62 43 44 44 51 54 63 54 62 88 74 51 69 94
95 96 96 89 84 72 43 31 25 21 17 13 14 16 17 21 22 22 20 21 29 70 75 97 72 89 78 90 82 85 81 75 63 58 45 47 47 52 61 66 69 91 84 41 65 92 93

GFSGBSN_700_rhum_204.txt.gz
RH
15 13 14 13 13 13 12 12 12 11 12 12 12 12 11 10 10 10 11 12 16 20 26 33 29 26 22 26 34 20 26 29 36 35 32 34 37 39 36 33 30 27 25 24 24 25 25
14 14 14 14 14 13 13 13 14 14 14 14 14 14 14 15 13 11 11 10 11 12 14 19 19 21 23 23 28 26 27 34 37 36 31 33 42 39 35 35 32 30 29 28 27 28 28
15 14 14 15 14 14 15 20 24 23 22 20 20 26 25 23 17 13 12 11 11 11 12 12 15 21 19 25 35 33 28 35 38 34 34 48 48 42 38 39 36 35 35 33 31 30 27
16 16 15 16 14 14 20 27 30 35 44 48 49 51 50 49 45 32 27 20 14 12 12 12 20 25 25 32 47 38 29 37 37 32 33 32 37 35 34 37 40 40 38 34 30 27 24
17 17 16 16 15 16 28 35 43 52 53 55 56 56 54 57 56 52 46 39 26 21 17 20 27 28 37 45 51 35 39 39 34 37 39 38 36 34 43 46 43 39 35 30 27 24 23
18 18 18 16 16 23 37 45 53 56 57 58 58 56 59 62 62 62 61 59 49 37 28 33 34 34 58 67 48 46 42 38 38 38 42 44 49 49 47 45 40 34 31 30 29 28 27
19 20 19 16 17 33 43 52 56 60 62 62 63 62 65 66 65 67 63 62 46 38 41 34 27 26 30 50 45 34 29 29 31 30 31 47 48 45 39 37 36 36 36 34 32 30 28
21 20 21 18 18 39 49 57 61 65 67 69 69 69 73 71 73 72 68 49 34 40 35 30 26 26 45 36 30 35 34 38 38 43 47 43 43 36 40 39 37 37 35 31 29 27 27
22 20 22 19 20 44 55 61 67 69 71 74 73 74 74 75 78 71 61 58 38 30 36 31 40 50 45 33 40 41 39 45 42 39 36 34 31 30 31 32 30 30 30 29 28 27 27
22 23 21 20 26 47 61 65 71 74 74 77 79 77 79 80 78 77 70 56 37 32 42 60 66 54 46 41 44 40 44 43 41 43 40 38 35 33 33 32 31 30 29 29 30 30 30
25 23 23 24 37 59 70 72 75 79 79 83 85 85 87 83 90 89 71 50 32 33 81 66 59 52 41 43 47 46 54 56 54 46 44 41 38 37 36 35 33 33 34 35 36 35 35
27 26 29 39 58 72 78 78 80 84 86 85 85 86 87 86 98 90 77 51 42 79 78 63 54 47 47 47 48 54 60 60 59 56 48 45 41 40 38 37 36 37 37 39 43 42 41
35 34 40 69 79 83 82 75 80 86 91 93 92 94 96 89 100 98 83 50 70 76 51 55 59 54 54 54 56 62 62 59 55 50 46 46 46 43 44 41 40 41 45 51 56 47 49
40 40 60 88 86 80 80 85 88 92 92 93 96 100 99 99 100 100 96 89 98 81 71 68 77 73 74 68 68 68 64 59 54 55 56 57 53 52 54 53 52 51 54 60 83 58 44
66 60 72 86 85 88 87 87 92 94 91 100 100 99 99 100 100 100 100 100 96 88 90 92 79 77 78 80 82 71 64 62 65 76 73 71 58 63 60 66 64 60 69 65 94 86 77
85 79 84 87 88 87 90 88 95 94 94 100 100 99 100 100 100 100 100 98 98 89 89 95 99 99 100 94 99 88 76 78 77 71 69 80 83 63 60 70 63 60 59 64 96 89 74
85 89 93 88 100 96 86 94 99 92 100 100 100 99 100 100 100 100 99 98 100 99 100 100 100 99 99 100 99 98 99 94 88 81 74 91 96 73 71 70 64 62 70 79 79 72 86
88 96 100 100 89 91 99 100 100 96 99 100 100 100 100 100 100 100 98 98 98 100 99 100 100 100 99 99 97 97 93 89 94 94 79 98 82 75 66 60 56 56 54 53 72 71 88
99 98 94 93 98 95 96 97 100 100 100 100 100 100 98 100 99 99 98 99 100 100 100 100 99 99 98 98 98 97 99 99 93 94 94 86 72 68 50 43 51 50 51 52 67 50 48
99 99 99 96 100 100 98 99 98 100 100 100 100 100 99 98 98 100 99 98 100 100 99 99 98 99 99 97 97 97 97 100 92 92 91 86 76 68 64 54 52 49 46 48 45 38 40
98 100 100 99 100 99 100 100 100 100 99 100 100 100 99 98 97 100 100 99 99 99 99 98 98 97 97 97 97 96 98 97 98 97 81 77 77 68 63 58 56 52 45 40 36 34 37
100 99 98 99 98 97 98 100 98 100 100 100 100 100 99 99 100 100 99 98 98 98 98 96 97 97 97 96 93 96 97 96 96 99 98 82 81 75 72 68 62 54 50 45 40 38 39
100 100 100 98 97 100 100 100 100 100 98 99 97 100 100 99 98 99 98 98 98 98 97 97 97 97 97 98 97 96 97 96 94 88 79 70 66 69 69 60 54 52 45 41 38 54 61
90 90 94 100 100 100 100 88 91 99 98 98 99 100 99 98 99 97 97 97 97 97 97 96 96 97 96 95 95 92 65 47 60 65 73 72 68 63 65 56 73 45 38 36 54 70 56
100 100 100 100 100 93 90 92 100 100 100 99 100 100 100 97 97 97 97 97 96 97 97 96 95 93 82 83 78 44 39 42 36 44 54 57 57 59 63 62 52 43 38 68 71 63 70
91 76 96 100 99 100 100 100 100 99 99 100 100 98 98 96 95 98 95 96 94 93 89 93 85 75 67 69 61 78 43 32 32 29 36 43 48 58 63 61 62 40 67 96 77 61 72
100 100 97 98 100 100 100 100 98 100 99 96 94 97 98 100 97 89 95 96 88 89 89 95 96 74 61 77 91 75 62 54 50 43 39 38 39 74 85 90 77 85 82 53 71 76 65
100 97 95 99 100 100 100 100 95 90 94 94 94 94 74 55 54 36 41 76 76 78 87 81 91 89 93 88 84 70 60 50 55 58 67 61 65 64 64 72 83 69 71 68 76 60 42
100 99 100 99 100 98 93 93 94 91 79 49 33 25 18 14 15 17 17 20 22 37 77 94 79 82 88 86 90 84 91 91 79 73 51 46 53 62 74 65 52 46 79 82 89 63 43

GFSGBSN_700_rhum_207.txt.gz
RH
24 21 18 17 17 14 13 13 13 12 11 10 13 17 20 20 26 32 32 26 16 12 11 11 13 14 15 16 20 19 20 27 27 28 36 39 36 34 33 36 37 35 32 30 29 26 25
23 21 18 16 15 14 14 13 12 14 17 22 24 30 37 46 45 45 45 44 39 26 19 18 18 17 18 19 25 24 32 31 32 36 39 38 34 36 40 40 37 31 31 30 26 25 25
22 18 15 16 14 14 14 13 15 25 26 31 40 48 49 49 48 46 47 47 48 47 45 35 25 21 26 26 27 39 41 32 33 39 38 34 35 46 44 39 35 37 36 32 27 27 28
17 16 14 15 15 15 15 14 19 30 37 44 50 52 54 52 52 50 47 46 45 49 51 46 37 29 28 28 38 47 43 41 40 41 37 33 35 37 42 41 37 38 40 38 24 30 28
14 15 14 15 16 16 16 14 24 37 44 52 54 56 58 58 57 54 51 46 46 47 45 41 33 31 31 36 49 40 44 48 43 38 40 41 39 37 37 37 40 42 44 39 35 33 33
15 16 16 16 16 17 17 15 31 41 51 55 59 58 62 62 61 56 55 51 50 45 39 39 36 33 33 46 36 36 49 41 43 43 41 39 42 39 42 49 45 38 41 38 37 35 33
18 18 18 18 17 18 18 16 34 45 54 59 63 63 66 64 64 60 57 54 49 45 43 40 36 32 26 27 30 37 31 29 34 34 32 38 42 34 32 43 44 44 41 39 38 36 33
21 21 20 20 19 18 18 18 40 46 58 64 65 69 72 71 67 67 68 72 70 57 39 35 32 32 31 28 36 32 40 38 40 40 40 45 39 32 34 36 36 38 39 34 31 30 30
24 22 22 21 21 20 20 19 39 50 64 66 69 72 76 75 69 71 69 81 79 63 46 34 52 54 49 39 34 35 39 45 43 43 41 40 37 36 35 33 32 33 32 31 30 31 30
26 22 23 23 22 20 20 20 40 57 70 70 72 73 78 79 72 78 76 90 86 68 46 56 62 50 49 40 40 42 41 48 52 52 49 40 37 36 36 35 34 34 33 31 32 35 38
29 25 24 23 23 22 21 23 44 64 75 74 76 75 80 80 82 92 88 97 95 80 67 63 58 47 47 40 45 41 53 60 61 61 60 50 45 40 40 39 38 38 38 36 36 36 37
30 30 26 26 24 23 22 30 54 71 80 78 78 80 86 83 80 93 98 98 98 65 81 54 57 56 52 45 42 50 49 57 63 61 56 54 49 46 45 45 41 40 37 36 37 40 51
31 31 29 27 25 23 29 45 68 82 84 79 82 85 87 82 88 98 92 98 94 73 54 53 60 54 54 54 54 54 56 62 67 64 57 52 50 49 46 45 46 40 41 54 66 66 60
44 33 31 27 28 29 48 64 79 86 82 83 91 90 88 93 100 100 100 100 99 82 60 54 65 60 72 66 63 72 74 70 67 61 58 54 57 54 54 54 51 47 49 56 86 76 65
64 52 36 31 31 39 64 82 90 84 91 98 96 88 95 96 98 100 100 100 97 94 87 83 78 76 74 68 75 77 75 74 66 67 66 63 61 59 58 68 63 59 56 56 65 75 95
96 75 68 49 42 57 85 72 88 96 98 100 100 98 98 98 99 100 100 99 98 96 96 99 100 97 90 86 86 97 97 86 70 70 69 72 74 64 61 62 63 61 59 61 85 96 85
98 94 85 74 62 82 61 79 91 96 98 100 100 99 97 98 100 100 99 97 98 97 100 99 99 100 100 100 100 100 98 94 84 76 74 85 95 80 69 67 66 64 62 64 76 93 94
100 100 98 93 79 82 63 67 87 99 98 100 100 100 99 100 100 99 98 97 98 100 100 99 100 99 100 100 99 100 98 99 94 91 86 94 89 84 78 65 54 68 63 57 67 88 92
100 99 100 100 95 88 68 80 91 99 96 100 100 100 100 100 100 98 99 99 99 100 99 100 100 100 100 99 99 98 99 96 94 96 98 92 90 72 62 50 54 58 57 53 51 77 94
99 99 99 98 100 97 92 99 98 96 100 100 100 100 100 98 98 100 99 98 100 99 100 100 100 100 99 98 99 97 96 95 97 100 95 97 94 82 76 64 66 66 57 55 58 68 82
100 98 100 100 99 92 100 100 100 100 100 100 100 100 99 98 88 99 100 98 99 99 100 99 98 98 98 98 98 98 97 98 99 98 95 96 93 85 79 71 68 64 60 61 55 48 47
100 100 100 100 100 100 100 100 100 99 98 100 100 99 98 99 98 100 100 98 99 100 99 99 98 97 98 98 94 97 98 99 96 97 98 96 94 80 70 67 56 59 67 61 54 48 48
100 100 98 100 100 98 100 100 99 99 99 99 99 99 100 98 99 100 98 99 99 100 99 98 98 98 99 98 99 98 97 97 96 96 95 95 95 94 88 78 76 70 62 53 39 42 51
98 100 100 100 98 100 100 100 97 100 100 100 100 100 100 99 100 99 100 100 100 99 98 98 97 98 96 97 98 97 97 96 95 77 51 81 89 79 80 77 88 56 45 47 51 73 91
100 99 100 98 100 100 98 100 100 100 99 100 98 100 100 99 100 100 100 98 97 97 97 97 98 98 96 96 96 90 58 36 31 24 26 30 47 74 69 68 62 48 48 57 70 83 78
99 100 100 100 100 92 86 96 100 82 86 100 100 100 99 99 98 98 97 97 96 98 97 96 97 93 91 83 71 60 39 31 34 37 44 44 41 54 60 75 79 48 68 71 91 87 71
98 99 99 96 85 95 100 100 98 100 99 100 100 99 99 98 96 95 96 95 94 93 91 88 74 78 82 86 79 67 65 56 60 55 53 50 54 64 85 93 92 81 77 90 92 72 58
96 99 89 97 97 100 100 99 100 100 100 99 99 99 98 97 96 95 94 85 77 85 86 90 94 99 82 58 65 71 75 69 66 66 78 93 94 80 87 95 90 83 87 66 63 44 39
100 100 99 100 99 100 100 100 99 99 99 97 95 96 86 65 40 35 53 66 57 54 64 88 83 77 68 62 76 88 87 82 79 87 54 57 69 85 74 70 55 72 67 64 58 55 51